Huron, SD

7:25 PM CDT on March 25, 2017 (GMT -0500)
Huron Regional

Weather History for KHON - April, 2013

Change the Weather History Date:

Tuesday, April 30, 2013

  Actual Average Record
Temperature  
Mean Temperature 56 °F 53 °F  
Max Temperature 66 °F 66 °F 95 °F (1992)
Min Temperature 45 °F 40 °F 14 °F (1950)
Degree Days  
Heating Degree Days 9 13  
Month to date heating degree days 817 559  
Since 1 July heating degree days 7881 7378  
Cooling Degree Days 0 0  
Month to date cooling degree days 0 4  
Year to date cooling degree days 0 4  
Growing Degree Days 5 (Base 50)    
Moisture  
Dew Point 34 °F    
Average Humidity 55    
Maximum Humidity 86    
Minimum Humidity 23    
Precipitation  
Precipitation 0.00 in 0.09 in 2.14 in (1898)
Month to date precipitation 2.82 2.31  
Year to date precipitation 4.98 4.87  
Snow  
Snow 0.00 in 0.00 in 2.20 in (1954)
Month to date snowfall 18.4 4.0  
Since 1 July snowfall 58.8 43.9  
Snow Depth 0.00 in    
Sea Level Pressure  
Sea Level Pressure 29.69 in    
Wind  
Wind Speed 17 mph (NW)    
Max Wind Speed 36 mph    
Max Gust Speed 45 mph    
Visibility 10 miles    
Events      
T = Trace of Precipitation, MM = Missing Value Source: NWS Daily Summary

Daily Weather History Graph

Daily Weather History Graph

Search for Another Location

Airport or City:

Trip Planner

Search our weather history database for the weather conditions in past years. The results will help you decide how hot, cold, wet, or windy it might be!

Date:

Astronomy

Apr. 30, 2013 Rise Set
Actual Time 6:24 AM CDT 8:36 PM CDT
Civil Twilight 5:52 AM CDT 9:08 PM CDT
Nautical Twilight 5:13 AM CDT 9:47 PM CDT
Astronomical Twilight 4:30 AM CDT 10:31 PM CDT
Moon 1:03 AM CDT (4/30) 10:53 AM CDT (4/30)
Length of Visible Light 15h 15m
Length of Day
14h 11m
Waning Gibbous, 70% of the Moon is Illuminated
Apr 30
Waning Gibbous
May 2
Last Quarter
May 9
New
May 17
First Quarter
May 24
Full

Hourly Weather History & Observations

Time (CDT) Temp. Windchill Dew Point Humidity Pressure Visibility Wind Dir Wind Speed Gust Speed Precip Events Conditions
12:55 AM 64.9 °F - 44.1 °F 47% 29.27 in 10.0 mi SSE 15.0 mph 19.6 mph N/A   Clear
1:55 AM 64.0 °F - 43.0 °F 46% 29.25 in 10.0 mi South 12.7 mph 20.7 mph N/A   Clear
2:55 AM 57.9 °F - 44.1 °F 60% 29.30 in 10.0 mi WSW 8.1 mph - N/A   Clear
3:25 AM 51.8 °F - 44.6 °F 76% 29.37 in 10.0 mi NW 31.1 mph 41.4 mph N/A   Clear
3:55 AM 51.1 °F - 44.1 °F 77% 29.44 in 10.0 mi NW 26.5 mph 44.9 mph N/A   Clear
4:55 AM 50.0 °F - 44.1 °F 80% 29.48 in 10.0 mi NW 23.0 mph 34.5 mph N/A   Clear
5:55 AM 48.0 °F - 43.0 °F 83% 29.55 in 10.0 mi NW 12.7 mph - N/A   Clear
6:55 AM 46.0 °F 40.2 °F 42.1 °F 86% 29.60 in 10.0 mi WNW 12.7 mph - N/A   Clear
7:55 AM 50.0 °F - 43.0 °F 77% 29.62 in 10.0 mi WNW 16.1 mph - N/A   Clear
8:55 AM 55.0 °F - 37.0 °F 51% 29.66 in 10.0 mi NW 28.8 mph 34.5 mph N/A   Clear
9:55 AM 59.0 °F - 30.0 °F 33% 29.67 in 10.0 mi NW 23.0 mph 29.9 mph N/A   Clear
10:55 AM 60.1 °F - 26.1 °F 27% 29.70 in 10.0 mi NW 26.5 mph 34.5 mph N/A   Clear
11:55 AM 63.0 °F - 27.0 °F 26% 29.71 in 10.0 mi NW 24.2 mph 38.0 mph N/A   Clear
12:55 PM 62.1 °F - 27.0 °F 26% 29.73 in 10.0 mi NW 20.7 mph 27.6 mph N/A   Clear
1:55 PM 63.0 °F - 24.1 °F 23% 29.73 in 10.0 mi NW 21.9 mph 26.5 mph N/A   Clear
2:55 PM 62.1 °F - 26.1 °F 25% 29.79 in 7.0 mi NW 16.1 mph 26.5 mph N/A   Clear
3:55 PM 60.8 °F - 26.6 °F 27% 29.80 in 10.0 mi NW 16.1 mph - N/A   Mostly Cloudy
4:55 PM 59.0 °F - 28.0 °F 31% 29.86 in 10.0 mi NW 13.8 mph - N/A   Overcast
5:55 PM 57.9 °F - 28.9 °F 33% 29.90 in 10.0 mi NW 11.5 mph - N/A   Overcast
6:55 PM 57.0 °F - 28.0 °F 33% 29.93 in 10.0 mi WNW 10.4 mph - N/A   Mostly Cloudy
7:55 PM 55.9 °F - 27.0 °F 33% 29.95 in 10.0 mi WNW 6.9 mph - N/A   Overcast
8:55 PM 55.0 °F - 28.0 °F 35% 29.96 in 10.0 mi North 10.4 mph - N/A   Overcast
9:55 PM 52.0 °F - 28.9 °F 41% 30.02 in 10.0 mi North 12.7 mph - N/A   Overcast
10:55 PM 50.0 °F - 28.9 °F 44% 30.04 in 10.0 mi NNW 12.7 mph - N/A   Overcast
11:55 PM 46.9 °F - 28.9 °F 50% 30.06 in 10.0 mi NNW 16.1 mph - N/A   Overcast